Find Starlink 31455

NORAD ID: 59309 Int'l Des: 2024-056 Owner: SPXS Country: US Constellation: starlink operational
LEOCIRCULAR

Live-Position

3D-Globus wird geladen...

Über Starlink 31455

Beschreibung wird geladen...

Nächste Überflüge

Passes for default location (London). Set your location on the main map for personalized predictions.

Höhenverlauf

Loading altitude history...

Zweizeiliger Elementsatz

1 59309U 24056P 26132.98059294 -.00004305 00000-0 -14698-3 0 9998
2 59309 43.0055 224.4436 0001809 269.8832 90.1812 15.27584117121024
Epoch: 12. Mai 2026 • Age: 14 hours

Aktueller Status

Höhe 483.7 km
Geschwindigkeit 7.63 km/s
Subsatellitenpunkt -7.01°S, 138.07°E
Startdatum 24. März 2024
Alter 2.1 years
Typ internet

Technische Details

Klassifizierung Payload
Masse 730.00 kg
Trockenmasse 700.00 kg
Gesamtmasse 730.00 kg
Länge 0.30 m
Durchmesser 4.10 m
Spannweite 29.00 m
Form Box + pan
Hersteller SPXS
Bus-Typ Starlink V2M
Phasenstatus In Orbit
Besitzer/Staat SPXS/US

Most Searched